FW8733 Weather Reports


Display with metric or nautical units.
time (UTC)temp
F
wind
direction
speed
MPH
gust
MPH
rain 1hr
in
rain 24hr
in
rain mn
in
humidity
%
barometer
mb
20260902030011 87 205 0.0 1.0 0.00 0.00 0.00 62 1017.5
20260902025505 87 199 2.0 2.0 0.00 0.00 0.00 62 1017.6
20260902025000 88 214 0.0 1.0 0.00 0.00 0.00 61 1017.2
20260902024456 88 203 1.0 1.0 0.00 0.00 0.00 61 1017.1
20260902023950 89 200 2.0 2.0 0.00 0.00 0.00 59 1017.3
20260902023446 89 199 1.0 1.0 0.00 0.00 0.00 59 1017.2
20260902022945 89 209 2.0 2.0 0.00 0.00 0.00 59 1017.1
20260902022441 89 170 1.0 2.0 0.00 0.00 0.00 58 1017.0
20260902021936 90 196 3.0 3.0 0.00 0.00 0.00 58 1016.6
20260902021431 90 162 3.0 3.0 0.00 0.00 0.00 57 1016.4
20260902020926 90 137 3.0 5.0 0.00 0.00 0.00 57 1016.5
20260902020423 90 159 3.0 3.0 0.00 0.00 0.00 56 1016.5
20260902015918 90 217 3.0 5.0 0.00 0.00 0.00 56 1016.5
20260902015414 90 191 3.0 3.0 0.00 0.00 0.00 56 1016.6
20260902014909 90 178 1.0 3.0 0.00 0.00 0.00 56 1016.5
20260902014406 90 227 0.0 1.0 0.00 0.00 0.00 56 1016.3
20260902013904 90 216 0.0 1.0 0.00 0.00 0.00 55 1016.2
20260902013400 91 211 1.0 1.0 0.00 0.00 0.00 54 1016.0
20260902012855 91 205 1.0 2.0 0.00 0.00 0.00 54 1016.0
20260902012351 91 197 2.0 2.0 0.00 0.00 0.00 54 1016.0
20260902011847 91 212 1.0 1.0 0.00 0.00 0.00 54 1016.0
20260902011341 91 203 1.0 1.0 0.00 0.00 0.00 53 1015.8
20260902010840 92 205 0.0 1.0 0.00 0.00 0.00 53 1015.7
20260902010330 92 198 0.0 0.0 0.00 0.00 0.00 52 1015.8
20260902005829 93 198 4.0 5.0 0.00 0.00 0.00 51 1015.6
20260902005323 93 201 1.0 2.0 0.00 0.00 0.00 51 1015.6
20260902004819 93 179 3.0 3.0 0.00 0.00 0.00 50 1015.7
20260902004314 93 195 2.0 2.0 0.00 0.00 0.00 50 1015.7
20260902003808 94 188 2.0 2.0 0.00 0.00 0.00 49 1015.9
20260902003304 94 134 4.0 5.0 0.00 0.00 0.00 49 1015.9
20260902002759 94 139 6.0 7.0 0.00 0.00 0.00 49 1016.0
20260902002259 95 201 3.0 3.0 0.00 0.00 0.00 49 1015.8
20260902001754 95 119 5.0 8.0 0.00 0.00 0.00 48 1016.1
20260902001250 95 185 6.0 7.0 0.00 0.00 0.00 48 1015.9
20260902000749 95 227 4.0 5.0 0.00 0.00 0.00 47 1015.9
20260902000244 96 170 4.0 7.0 0.00 0.00 0.00 45 1016.1
20260901235739 96 218 2.0 2.0 0.00 0.00 0.00 46 1015.7
20260901235234 96 224 1.0 1.0 0.00 0.00 0.00 46 1015.9
20260901234733 96 217 0.0 1.0 0.00 0.00 0.00 46 1016.1
20260901234233 96 226 0.0 1.0 0.00 0.00 0.00 47 1015.7
20260901233728 96 212 1.0 2.0 0.00 0.00 0.00 47 1015.9
20260901233224 97 186 1.0 2.0 0.00 0.00 0.00 46 1015.8
20260901232719 98 206 0.0 1.0 0.00 0.00 0.00 44 1015.7
20260901232214 98 233 0.0 0.0 0.00 0.00 0.00 45 1015.6
20260901231711 98 228 0.0 0.0 0.00 0.00 0.00 44 1015.8
20260901231207 99 203 2.0 5.0 0.00 0.00 0.00 44 1015.7
20260901230702 99 193 1.0 2.0 0.00 0.00 0.00 43 1015.9
20260901230202 99 211 2.0 2.0 0.00 0.00 0.00 42 1015.8
20260901225657 100 219 5.0 6.0 0.00 0.00 0.00 42 1016.0
20260901225151 100 262 0.0 1.0 0.00 0.00 0.00 42 1015.8
20260901224648 100 230 0.0 0.0 0.00 0.00 0.00 43 1015.5
20260901224143 100 165 3.0 5.0 0.00 0.00 0.00 42 1015.8
20260901223639 100 214 1.0 1.0 0.00 0.00 0.00 40 1015.8
20260901223134 100 230 0.0 0.0 0.00 0.00 0.00 41 1015.8
20260901222630 100 183 4.0 6.0 0.00 0.00 0.00 40 1015.9
20260901222126 101 229 0.0 0.0 0.00 0.00 0.00 40 1015.7
20260901221622 100 205 1.0 1.0 0.00 0.00 0.00 40 1015.9
20260901221117 100 181 3.0 3.0 0.00 0.00 0.00 41 1015.7
20260901220616 100 205 4.0 6.0 0.00 0.00 0.00 40 1016.0
20260901220115 100 171 2.0 3.0 0.00 0.00 0.00 41 1015.9
20260901215614 100 174 4.0 6.0 0.00 0.00 0.00 42 1015.9
20260901215108 100 249 1.0 2.0 0.00 0.00 0.00 43 1016.1
20260901214607 99 210 0.0 1.0 0.00 0.00 0.00 45 1016.0
20260901214107 98 217 0.0 1.0 0.00 0.00 0.00 46 1015.9
20260901213601 98 195 1.0 2.0 0.00 0.00 0.00 45 1016.1
20260901213055 99 199 3.0 3.0 0.00 0.00 0.00 43 1016.1
20260901212555 99 198 4.0 6.0 0.00 0.00 0.00 43 1016.2
20260901212052 98 231 2.0 2.0 0.00 0.00 0.00 43 1016.1
20260901211547 96 225 0.0 0.0 0.00 0.00 0.00 47 1016.3
20260901211043 96 244 0.0 0.0 0.00 0.00 0.00 48 1016.2
20260901210538 98 191 4.0 5.0 0.00 0.00 0.00 45 1016.5
20260901210035 100 223 0.0 0.0 0.00 0.00 0.00 43 1016.4
20260901205529 99 288 3.0 3.0 0.00 0.00 0.00 44 1016.7
20260901205024 98 236 0.0 1.0 0.00 0.00 0.00 44 1016.5
20260901204521 97 241 0.0 0.0 0.00 0.00 0.00 47 1016.8
20260901204021 98 170 4.0 5.0 0.00 0.00 0.00 44 1016.8
20260901203515 100 227 4.0 6.0 0.00 0.00 0.00 43 1016.8
20260901203010 100 245 1.0 1.0 0.00 0.00 0.00 45 1017.0
20260901202505 98 224 0.0 0.0 0.00 0.00 0.00 48 1017.1
20260901202001 98 195 4.0 6.0 0.00 0.00 0.00 46 1017.1
20260901201456 98 211 1.0 2.0 0.00 0.00 0.00 45 1017.3
20260901200950 99 206 1.0 1.0 0.00 0.00 0.00 43 1017.4
20260901200445 98 219 1.0 1.0 0.00 0.00 0.00 44 1017.5
20260901195944 98 183 7.0 8.0 0.00 0.00 0.00 43 1017.5
20260901195443 98 209 2.0 3.0 0.00 0.00 0.00 44 1017.5
20260901194937 99 141 5.0 7.0 0.00 0.00 0.00 44 1017.5
20260901194432 99 177 3.0 5.0 0.00 0.00 0.00 43 1017.6
20260901193929 98 156 3.0 5.0 0.00 0.00 0.00 45 1017.7
20260901193428 96 254 2.0 2.0 0.00 0.00 0.00 47 1017.8
20260901192927 98 218 0.0 1.0 0.00 0.00 0.00 46 1017.7
20260901192423 98 239 0.0 0.0 0.00 0.00 0.00 47 1017.9
20260901191914 98 164 6.0 6.0 0.00 0.00 0.00 44 1018.0
20260901191409 98 207 1.0 1.0 0.00 0.00 0.00 46 1018.1
20260901190905 98 211 2.0 2.0 0.00 0.00 0.00 45 1018.1
20260901190405 97 230 0.0 0.0 0.00 0.00 0.00 48 1018.1
20260901185903 97 244 0.0 1.0 0.00 0.00 0.00 47 1018.0
20260901185402 98 128 5.0 8.0 0.00 0.00 0.00 46 1018.3
20260901184857 98 180 3.0 3.0 0.00 0.00 0.00 47 1018.4
20260901184353 97 191 4.0 5.0 0.00 0.00 0.00 46 1018.5
20260901183848 97 113 5.0 6.0 0.00 0.00 0.00 47 1018.6
20260901183347 97 148 5.0 6.0 0.00 0.00 0.00 47 1018.8
20260901182843 97 240 3.0 5.0 0.00 0.00 0.00 47 1018.8
20260901182343 98 196 6.0 8.0 0.00 0.00 0.00 45 1019.0
20260901181838 96 63 2.0 2.0 0.00 0.00 0.00 48 1018.8
20260901181333 96 179 4.0 5.0 0.00 0.00 0.00 48 1019.1
20260901180832 97 224 3.0 5.0 0.00 0.00 0.00 48 1019.0
20260901180331 96 178 3.0 5.0 0.00 0.00 0.00 51 1019.1
20260901175825 96 163 2.0 3.0 0.00 0.00 0.00 50 1019.2
20260901175319 96 221 1.0 2.0 0.00 0.00 0.00 51 1019.2
20260901174814 96 173 3.0 3.0 0.00 0.00 0.00 51 1019.2
20260901174310 96 189 4.0 6.0 0.00 0.00 0.00 49 1019.4
20260901173806 95 184 2.0 3.0 0.00 0.00 0.00 54 1019.7
20260901173300 95 199 3.0 3.0 0.00 0.00 0.00 52 1019.6
20260901172757 95 194 4.0 5.0 0.00 0.00 0.00 52 1019.7
20260901172256 95 144 5.0 7.0 0.00 0.00 0.00 52 1019.6
20260901171754 96 152 4.0 5.0 0.00 0.00 0.00 52 1020.0
20260901171253 95 211 4.0 5.0 0.00 0.00 0.00 53 1019.8
20260901170752 95 230 0.0 0.0 0.00 0.00 0.00 60 1019.9
20260901170247 95 181 3.0 5.0 0.00 0.00 0.00 53 1020.0
20260901165746 97 180 2.0 3.0 0.00 0.00 0.00 53 1020.0
20260901165240 96 240 0.0 0.0 0.00 0.00 0.00 58 1020.1
20260901164737 95 229 0.0 1.0 0.00 0.00 0.00 57 1019.9
20260901164233 96 225 0.0 0.0 0.00 0.00 0.00 59 1019.9
20260901163728 95 221 0.0 0.0 0.00 0.00 0.00 61 1020.3
20260901163227 94 210 1.0 2.0 0.00 0.00 0.00 60 1020.0
20260901162722 93 226 0.0 1.0 0.00 0.00 0.00 62 1020.4
20260901162221 94 228 1.0 2.0 0.00 0.00 0.00 61 1020.2
20260901161720 93 222 0.0 0.0 0.00 0.00 0.00 67 1020.4
20260901161215 93 221 0.0 1.0 0.00 0.00 0.00 62 1020.3
20260901160712 92 222 0.0 0.0 0.00 0.00 0.00 65 1020.5
20260901160207 89 245 1.0 1.0 0.00 0.00 0.00 68 1020.3
20260901155705 91 204 0.0 1.0 0.00 0.00 0.00 65 1020.5
20260901155201 89 261 0.0 1.0 0.00 0.00 0.00 69 1020.3
20260901154656 90 239 0.0 1.0 0.00 0.00 0.00 70 1020.5
20260901154151 89 296 1.0 2.0 0.00 0.00 0.00 67 1020.6
20260901153646 89 233 0.0 0.0 0.00 0.00 0.00 70 1020.4
20260901153145 89 222 1.0 1.0 0.00 0.00 0.00 67 1020.3
20260901152640 90 210 1.0 2.0 0.00 0.00 0.00 67 1020.4
20260901152139 89 239 0.0 1.0 0.00 0.00 0.00 67 1020.3
20260901151635 88 221 0.0 0.0 0.00 0.00 0.00 73 1020.6
20260901151134 88 238 1.0 1.0 0.00 0.00 0.00 71 1020.6
20260901150633 88 238 0.0 1.0 0.00 0.00 0.00 73 1020.5
20260901150132 88 238 1.0 1.0 0.00 0.00 0.00 73 1020.5
20260901145630 87 212 0.0 1.0 0.00 0.00 0.00 75 1020.5
20260901145130 87 214 0.0 0.0 0.00 0.00 0.00 73 1020.6
20260901144625 87 238 1.0 2.0 0.00 0.00 0.00 75 1020.5
20260901144121 86 263 0.0 1.0 0.00 0.00 0.00 76 1020.5
20260901143616 87 215 0.0 1.0 0.00 0.00 0.00 76 1020.4
20260901143112 86 236 0.0 0.0 0.00 0.00 0.00 78 1020.5
20260901142608 85 213 0.0 1.0 0.00 0.00 0.00 80 1020.6
20260901142107 86 213 0.0 0.0 0.00 0.00 0.00 78 1020.6
20260901141602 86 214 0.0 0.0 0.00 0.00 0.00 79 1020.9
20260901141056 86 213 0.0 0.0 0.00 0.00 0.00 77 1020.7
20260901140550 85 237 1.0 1.0 0.00 0.00 0.00 78 1020.8
20260901140050 85 213 0.0 0.0 0.00 0.00 0.00 80 1020.7
20260901135549 84 237 0.0 0.0 0.00 0.00 0.00 81 1020.8
20260901135044 83 212 0.0 0.0 0.00 0.00 0.00 83 1020.6
20260901134540 83 242 0.0 0.0 0.00 0.00 0.00 82 1021.0
20260901134035 83 214 1.0 1.0 0.00 0.00 0.00 82 1020.6
20260901133534 82 236 0.0 0.0 0.00 0.00 0.00 85 1020.5
20260901133033 82 239 1.0 1.0 0.00 0.00 0.00 85 1020.4
20260901132532 81 241 0.0 0.0 0.00 0.00 0.00 87 1020.5
20260901132026 81 216 0.0 0.0 0.00 0.00 0.00 86 1020.3
20260901131521 80 227 0.0 0.0 0.00 0.00 0.00 90 1020.3
20260901131017 79 233 0.0 0.0 0.00 0.00 0.00 92 1020.2
20260901130516 77 224 0.0 0.0 0.00 0.00 0.00 95 1020.3
20260901130015 77 223 0.0 0.0 0.00 0.00 0.00 96 1020.0
20260901125514 76 233 0.0 0.0 0.00 0.00 0.00 97 1020.1
20260901125009 76 233 0.0 0.0 0.00 0.00 0.00 97 1020.0
20260901124505 75 233 0.0 0.0 0.00 0.00 0.00 97 1020.2
20260901123958 75 233 0.0 0.0 0.00 0.00 0.00 97 1019.8
20260901123453 75 233 0.0 0.0 0.00 0.00 0.00 97 1019.9
20260901122951 75 233 0.0 0.0 0.00 0.00 0.00 96 1019.8
20260901122450 75 233 0.0 0.0 0.00 0.00 0.00 96 1019.7
20260901121945 75 234 0.0 0.0 0.00 0.00 0.00 96 1019.9
20260901121440 75 233 0.0 0.0 0.00 0.00 0.00 96 1019.7
20260901120935 75 233 0.0 0.0 0.00 0.00 0.00 96 1019.7
20260901120435 75 233 0.0 0.0 0.00 0.00 0.00 96 1019.7
20260901115931 75 235 0.0 0.0 0.00 0.00 0.00 96 1019.6
20260901115431 75 235 0.0 0.0 0.00 0.00 0.00 96 1019.6
20260901114929 75 228 0.0 0.0 0.00 0.00 0.00 95 1019.6
20260901114424 75 228 0.0 0.0 0.00 0.00 0.00 95 1019.8
20260901113922 75 228 0.0 0.0 0.00 0.00 0.00 95 1019.9
20260901113421 75 233 0.0 0.0 0.00 0.00 0.00 94 1019.6
20260901112916 75 235 0.0 0.0 0.00 0.00 0.00 94 1019.8
20260901112411 75 235 0.0 0.0 0.00 0.00 0.00 94 1019.8
20260901111906 75 235 0.0 0.0 0.00 0.00 0.00 94 1019.6
20260901111404 75 232 0.0 0.0 0.00 0.00 0.00 94 1019.5
20260901110903 75 232 0.0 0.0 0.00 0.00 0.00 93 1019.6
20260901110359 76 232 0.0 0.0 0.00 0.00 0.00 93 1019.5
20260901105855 76 233 0.0 0.0 0.00 0.00 0.00 93 1019.5
20260901105350 76 233 0.0 0.0 0.00 0.00 0.00 93 1019.6
20260901104846 76 236 0.0 0.0 0.00 0.00 0.00 93 1019.6
20260901104341 76 230 0.0 0.0 0.00 0.00 0.00 92 1019.7
20260901103837 76 224 0.0 0.0 0.00 0.00 0.00 91 1019.7
20260901103336 77 232 0.0 0.0 0.00 0.00 0.00 91 1019.7
20260901102831 77 217 0.0 0.0 0.00 0.00 0.00 91 1019.6
20260901102326 77 216 0.0 0.0 0.00 0.00 0.00 91 1019.3
20260901101822 77 216 0.0 0.0 0.00 0.00 0.00 91 1019.4
20260901101321 77 216 0.0 0.0 0.00 0.00 0.00 90 1019.3
20260901100821 77 216 0.0 0.0 0.00 0.00 0.00 90 1019.5
20260901100316 77 216 0.0 0.0 0.00 0.00 0.00 90 1019.4
20260901095814 77 215 0.0 1.0 0.00 0.00 0.00 90 1019.7
20260901095312 77 216 0.0 0.0 0.00 0.00 0.00 89 1019.5
20260901094807 77 216 0.0 0.0 0.00 0.00 0.00 89 1019.6
20260901094301 77 216 0.0 0.0 0.00 0.00 0.00 89 1019.6
20260901093756 77 216 0.0 0.0 0.00 0.00 0.00 89 1019.7
20260901093255 77 216 0.0 0.0 0.00 0.00 0.00 88 1019.7
20260901092751 77 216 0.0 0.0 0.00 0.00 0.00 88 1019.4
20260901092247 78 216 0.0 0.0 0.00 0.00 0.00 88 1019.6
20260901091742 78 216 0.0 0.0 0.00 0.00 0.00 87 1019.8
20260901091238 78 216 0.0 0.0 0.00 0.00 0.00 87 1019.7
20260901090732 78 216 0.0 0.0 0.00 0.00 0.00 87 1019.6
20260901090227 78 216 0.0 0.0 0.00 0.00 0.00 86 1019.8
20260901085723 79 217 0.0 0.0 0.00 0.00 0.00 86 1019.5
20260901085218 79 215 0.0 0.0 0.00 0.00 0.00 85 1019.5
20260901084715 79 166 2.0 2.0 0.00 0.00 0.00 85 1019.4
20260901084211 79 218 0.0 0.0 0.00 0.00 0.00 85 1019.5
20260901083705 79 206 0.0 1.0 0.00 0.00 0.00 85 1019.5
20260901083204 79 215 0.0 1.0 0.00 0.00 0.00 84 1019.5
20260901082658 79 214 1.0 1.0 0.00 0.00 0.00 84 1019.6
20260901082154 79 217 0.0 1.0 0.00 0.00 0.00 83 1019.4
20260901081649 79 218 1.0 1.0 0.00 0.00 0.00 83 1019.6
20260901081148 80 228 1.0 2.0 0.00 0.00 0.00 83 1019.4
20260901080643 80 199 1.0 2.0 0.00 0.00 0.00 83 1019.2
20260901080142 80 218 1.0 1.0 0.00 0.00 0.00 83 1019.2
20260901075638 80 218 0.0 1.0 0.00 0.00 0.00 82 1019.4
20260901075137 80 218 0.0 1.0 0.00 0.00 0.00 82 1019.5
20260901074636 80 218 0.0 1.0 0.00 0.00 0.00 81 1019.4
20260901074132 80 218 0.0 0.0 0.00 0.00 0.00 81 1019.5
20260901073628 80 218 0.0 1.0 0.00 0.00 0.00 81 1019.5
20260901073123 80 219 0.0 0.0 0.00 0.00 0.00 80 1019.6
20260901072619 80 217 1.0 1.0 0.00 0.00 0.00 80 1019.6
20260901072114 80 218 0.0 1.0 0.00 0.00 0.00 79 1019.7
20260901071614 80 217 1.0 1.0 0.00 0.00 0.00 79 1019.8
20260901071113 81 218 0.0 0.0 0.00 0.00 0.00 78 1019.6
20260901070607 81 218 0.0 0.0 0.00 0.00 0.00 78 1019.5
20260901070103 81 218 1.0 1.0 0.00 0.00 0.00 77 1019.5
20260901065556 82 218 0.0 0.0 0.00 0.00 0.00 77 1019.4
20260901065051 82 207 2.0 3.0 0.00 0.00 0.00 76 1019.5
20260901064548 82 180 1.0 2.0 0.00 0.00 0.00 75 1019.3
20260901064044 82 218 3.0 3.0 0.00 0.00 0.00 75 1019.5
20260901063541 82 197 2.0 3.0 0.00 0.00 0.00 75 1019.6
20260901063037 83 212 3.0 3.0 0.00 0.00 0.00 75 1019.2
20260901062532 83 144 3.0 3.0 0.00 0.00 0.00 75 1019.2
20260901062028 83 207 1.0 2.0 0.00 0.00 0.00 74 1019.1
20260901061524 83 228 1.0 1.0 0.00 0.00 0.00 74 1019.3
20260901061019 83 157 3.0 3.0 0.00 0.00 0.00 73 1018.8
20260901060513 83 208 4.0 5.0 0.00 0.00 0.00 73 1018.9
20260901060008 84 228 3.0 3.0 0.00 0.00 0.00 73 1019.0
20260901055504 84 136 5.0 7.0 0.00 0.00 0.00 72 1019.0
20260901055000 84 186 3.0 5.0 0.00 0.00 0.00 72 1018.9
20260901054457 84 175 4.0 5.0 0.00 0.00 0.00 72 1019.0
20260901053953 84 204 3.0 3.0 0.00 0.00 0.00 72 1018.7
20260901053448 84 183 5.0 6.0 0.00 0.00 0.00 72 1019.0
20260901052943 84 201 2.0 2.0 0.00 0.00 0.00 71 1018.9
20260901052439 85 178 3.0 3.0 0.00 0.00 0.00 71 1018.9
20260901051932 85 184 3.0 5.0 0.00 0.00 0.00 71 1018.8
20260901051427 85 210 2.0 2.0 0.00 0.00 0.00 70 1018.8
20260901050922 85 155 4.0 6.0 0.00 0.00 0.00 70 1018.8
20260901050418 85 205 4.0 6.0 0.00 0.00 0.00 70 1018.8
20260901045917 85 225 3.0 5.0 0.00 0.00 0.00 70 1018.5
20260901045412 85 146 4.0 6.0 0.00 0.00 0.00 69 1018.7
20260901044907 85 197 3.0 3.0 0.00 0.00 0.00 69 1018.6
20260901044403 86 179 3.0 3.0 0.00 0.00 0.00 69 1018.5
20260901043859 86 211 2.0 2.0 0.00 0.00 0.00 68 1018.6
20260901043354 86 148 6.0 7.0 0.00 0.00 0.00 67 1018.6
20260901042849 86 166 3.0 3.0 0.00 0.00 0.00 67 1018.6
20260901042343 86 171 5.0 6.0 0.00 0.00 0.00 66 1018.6
20260901041838 86 195 4.0 6.0 0.00 0.00 0.00 66 1018.7
20260901041333 86 229 2.0 2.0 0.00 0.00 0.00 66 1018.7
20260901040828 86 224 5.0 7.0 0.00 0.00 0.00 65 1018.5
20260901040327 86 191 4.0 5.0 0.00 0.00 0.00 65 1018.6
20260901035826 87 197 3.0 3.0 0.00 0.00 0.00 64 1018.8
20260901035326 87 205 3.0 3.0 0.00 0.00 0.00 64 1018.6
20260901034824 87 168 5.0 6.0 0.00 0.00 0.00 63 1018.7
20260901034320 87 120 4.0 5.0 0.00 0.00 0.00 62 1018.7
20260901033820 87 131 5.0 6.0 0.00 0.00 0.00 61 1018.5
20260901033319 87 151 2.0 5.0 0.00 0.00 0.00 59 1018.6
20260901032818 87 201 2.0 3.0 0.00 0.00 0.00 57 1018.5
20260901032317 87 218 2.0 2.0 0.00 0.00 0.00 55 1018.5
20260901031812 87 187 3.0 3.0 0.00 0.00 0.00 54 1018.2
20260901031308 87 205 3.0 3.0 0.00 0.00 0.00 54 1018.3
20260901030808 87 221 3.0 3.0 0.00 0.00 0.00 54 1018.3
20260901030303 86 183 3.0 3.0 0.00 0.00 0.00 56 1018.1